International Virtual Aviation Organisation

Russian Federation and Kazakhstan MCD

 

Карточка аэропорта UUDL

Внимание!
Информация на этой странице в стадии наполнения.
Если вы не увидели какой-то информации, или заметили неточность - пожалуйста сообщите нам!
Спасибо!
Команда RU-STAFF
Название аэропортаТуношна
Название аэропорта (англ.)Tunoshna
Превышение305 ft. (93 m.)
Координаты57°33.636', 40°9.438'
Высота перехода700 m
Эшелон переходаFL050
Коды ответчика2750-2757
Зона ОрВДМосква РПИ (UUWV)
Данные METARUUDL 300030Z 11003MPS 9999 OVC005 01/00 Q1033 R23/290150 NOSIG RMK QBB150 QFE766
Проноз погоды (TAF)UUDL 292300Z 3000/3024 12005MPS 8000 OVC005 TX01/3006Z TNM02/3024Z TEMPO 3000/3012 2100 -SN BR OVC003
NOTAMshow/hide NOTAM
AWOS   TABLE

Информация о ВПП

ВПП Длина ВПП (м.) Покрытие Курс ВПП Частота ILS
053010Асфальтобетон51 
233010Асфальтобетон231110.5

Диспетчерские позиции




Спутниковое изображение